This demonstration page uses our WeatherBlox Daily Observations layout. Learn more.

Hourly Observations for October 21, 2019

Temp ( °F °C ) Dew Point ( °F °C ) Humidity (%) Winds ( mph kmh ) Pressure ( in mb ) Visibility ( mi km ) Precip ( " mm )
12:53 am 00:53 Mostly Clear 37 2.8 32 0 82 82 WNW 20 31 29.83 1010 10 16.09344 0 0
1:53 am 01:53 Clear 36 2.2 32 0 86 86 WNW 17 28 29.83 1010 10 16.09344 0 0
2:53 am 02:53 Clear 35 1.7 30 -1.1 82 82 WNW 12 19 29.85 1011 10 16.09344 0 0
3:53 am 03:53 Clear 35 1.7 30 -1.1 82 82 WNW 15 24 29.88 1012 10 16.09344 0 0
4:53 am 04:53 Clear 35 1.7 29 -1.7 78 78 WNW 13 20 29.88 1012 10 16.09344 0 0
5:53 am 05:53 Clear 33 0.6 28 -2.2 82 82 WNW 12 19 29.91 1013 10 16.09344 0 0
6:53 am 06:53 Clear 33 0.6 28 -2.2 82 82 WNW 14 22 29.91 1013 10 16.09344 0 0
7:53 am 07:53 Sunny 33 0.6 27 -2.8 78 78 WNW 12 19 29.91 1013 10 16.09344 0 0
8:53 am 08:53 Sunny 37 2.8 28 -2.2 70 70 NW 12 19 29.94 1014 10 16.09344 0 0
9:53 am 09:53 Sunny 42 5.6 26 -3.3 53 53 NW 17 28 29.94 1014 10 16.09344 0 0
10:53 am 10:53 Sunny 45 7.2 26 -3.3 48 48 NW 18 30 29.94 1014 10 16.09344 0 0
11:53 am 11:53 Sunny 48 8.9 28 -2.2 46 46 NNW 24 39 29.94 1014 10 16.09344 0 0
12:53 pm 12:53 Mostly Sunny 49 9.4 27 -2.8 43 43 NNW 24 39 29.94 1014 10 16.09344 0 0
1:53 pm 13:53 Partly Cloudy 51 10.6 26 -3.3 38 38 NW 22 35 29.91 1013 10 16.09344 0 0
2:53 pm 14:53 Mostly Cloudy 48 8.9 24 -4.4 39 39 NNW 23 37 29.94 1014 10 16.09344 0 0
3:53 pm 15:53 Cloudy 48 8.9 27 -2.8 44 44 NNW 20 31 29.97 1015 10 16.09344 0 0
4:53 pm 16:53 Cloudy 47 8.3 28 -2.2 48 48 NW 14 22 30 1016 10 16.09344 0.001 0.001
5:53 pm 17:53 Cloudy 46 7.8 26 -3.3 46 46 NW 16 26 30.03 1017 10 16.09344 0 0
6:53 pm 18:53 Mostly Cloudy 43 6.1 27 -2.8 53 53 NNW 12 19 30.06 1018 10 16.09344 0 0
7:53 pm 19:53 Mostly Clear 38 3.3 27 -2.8 65 65 NNW 10 17 30.09 1019 10 16.09344 0 0
8:53 pm 20:53 Clear 34 1.1 27 -2.8 76 76 WNW 6 9 30.09 1019 10 16.09344 0 0
9:53 pm 21:53 Mostly Clear 35 1.7 27 -2.8 72 72 W 9 15 30.09 1019 10 16.09344 0 0
10:53 pm 22:53 Mostly Cloudy 36 2.2 28 -2.2 73 73 WNW 12 19 30.09 1019 10 16.09344 0 0
11:53 pm 23:53 Partly Cloudy 34 1.1 29 -1.7 82 82 WNW 9 15 30.12 1020 10 16.09344 0 0

Powered by AerisWeather